Weather History for KOJA - October, 2013

Change the Weather History Date:

Saturday, October 5, 2013

  Actual Average (KJWG) Record (KJWG)
Temperature  
Mean Temperature 58 °F -  
Max Temperature 68 °F 78 °F 93 °F (1960)
Min Temperature 48 °F 54 °F 38 °F (1964)
Degree Days  
Heating Degree Days 7    
Growing Degree Days 8 (Base 50)    
Moisture  
Dew Point 36 °F    
Average Humidity 50    
Maximum Humidity 71    
Minimum Humidity 26    
Precipitation  
Precipitation 0.00 in - - ()
Sea Level Pressure  
Sea Level Pressure 30.09 in    
Wind  
Wind Speed 14 mph (NNW)    
Max Wind Speed 21 mph    
Max Gust Speed 28 mph    
Visibility 10 miles    
Events Thunderstorm    
Averages and records for this station are not official NWS values.
T = Trace of Precipitation, MM = Missing Value Source: NWS Daily Summary

Daily Weather History Graph

Daily Weather History Graph

Search for Another Location

Airport or City:

Trip Planner

Search our weather history database for the weather conditions in past years. The results will help you decide how hot, cold, wet, or windy it might be!

Date:

Astronomy

Oct. 05, 2013 Rise Set
Actual Time 7:33 AM CDT 7:12 PM CDT
Civil Twilight 7:07 AM CDT 7:37 PM CDT
Nautical Twilight 6:38 AM CDT 8:07 PM CDT
Astronomical Twilight 6:08 AM CDT 8:36 PM CDT
Moon 8:11 AM CDT (10/5) 7:35 PM CDT (10/5)
Length of Visible Light 12h 30m
Length of Day
11h 39m
New Moon, 1% of the Moon is Illuminated
Oct 5
New Moon
Oct 11
First Quarter
Oct 18
Full
Oct 26
Last Quarter
Nov 3
New

Hourly Weather History & Observations

Time (CDT) Temp. Dew Point Humidity Pressure Visibility Wind Dir Wind Speed Gust Speed Precip Events Conditions
12:15 AM 59.0 °F 44.6 °F 59% 29.99 in 10.0 mi North 18.4 mph - N/A   Clear
12:35 AM 57.2 °F 42.8 °F 59% 30.00 in 10.0 mi North 16.1 mph 24.2 mph N/A   Clear
12:55 AM 57.2 °F 42.8 °F 59% 30.01 in 10.0 mi North 13.8 mph 25.3 mph N/A   Clear
1:15 AM 55.4 °F 41.0 °F 58% 30.02 in 10.0 mi North 18.4 mph 25.3 mph N/A   Clear
1:35 AM 55.4 °F 41.0 °F 58% 30.02 in 10.0 mi North 17.3 mph 24.2 mph N/A   Clear
1:55 AM 55.4 °F 37.4 °F 51% 30.02 in 10.0 mi North 18.4 mph 26.5 mph N/A   Clear
2:15 AM 53.6 °F 37.4 °F 54% 30.03 in 10.0 mi North 17.3 mph 26.5 mph N/A Thunderstorm Scattered Clouds
2:35 AM 53.6 °F 37.4 °F 54% 30.03 in 10.0 mi North 15.0 mph 21.9 mph N/A   Mostly Cloudy
2:55 AM 53.6 °F 37.4 °F 54% 30.04 in 10.0 mi North 19.6 mph 26.5 mph N/A   Overcast
3:15 AM 53.6 °F 35.6 °F 51% 30.05 in 10.0 mi North 16.1 mph - N/A   Overcast
3:35 AM 53.6 °F 37.4 °F 54% 30.05 in 10.0 mi North 15.0 mph 18.4 mph N/A   Overcast
3:55 AM 53.6 °F 37.4 °F 54% 30.05 in 10.0 mi North 20.7 mph 27.6 mph N/A   Overcast
4:15 AM 51.8 °F 37.4 °F 58% 30.06 in 10.0 mi North 20.7 mph 25.3 mph N/A   Overcast
4:35 AM 51.8 °F 35.6 °F 54% 30.06 in 10.0 mi North 19.6 mph 27.6 mph N/A   Overcast
4:55 AM 51.8 °F 35.6 °F 54% 30.08 in 10.0 mi North 13.8 mph 23.0 mph N/A   Overcast
5:15 AM 50.0 °F 35.6 °F 58% 30.08 in 10.0 mi North 16.1 mph 26.5 mph N/A   Overcast
5:35 AM 50.0 °F 35.6 °F 58% 30.09 in 10.0 mi North 20.7 mph 26.5 mph N/A   Overcast
5:55 AM 50.0 °F 35.6 °F 58% 30.09 in 10.0 mi North 19.6 mph 26.5 mph N/A   Overcast
6:15 AM 50.0 °F 35.6 °F 58% 30.10 in 10.0 mi North 12.7 mph - N/A   Overcast
6:35 AM 50.0 °F 37.4 °F 62% 30.10 in 10.0 mi North 16.1 mph - N/A   Overcast
6:55 AM 50.0 °F 35.6 °F 58% 30.10 in 10.0 mi North 17.3 mph - N/A   Overcast
7:15 AM 48.2 °F 35.6 °F 62% 30.10 in 10.0 mi North 16.1 mph 20.7 mph N/A   Overcast
7:35 AM 48.2 °F 35.6 °F 62% 30.11 in 10.0 mi NNW 16.1 mph 25.3 mph N/A   Overcast
7:55 AM 48.2 °F 35.6 °F 62% 30.12 in 10.0 mi North 10.4 mph - N/A   Overcast
8:15 AM 50.0 °F 35.6 °F 58% 30.12 in 10.0 mi North 11.5 mph 17.3 mph N/A   Overcast
8:35 AM 50.0 °F 35.6 °F 58% 30.13 in 10.0 mi North 13.8 mph - N/A   Overcast
8:55 AM 50.0 °F 35.6 °F 58% 30.14 in 10.0 mi North 10.4 mph - N/A   Overcast
9:15 AM 50.0 °F 35.6 °F 58% 30.15 in 10.0 mi North 13.8 mph 18.4 mph N/A   Overcast
9:35 AM 50.0 °F 35.6 °F 58% 30.16 in 10.0 mi North 16.1 mph 21.9 mph N/A   Overcast
9:55 AM 51.8 °F 35.6 °F 54% 30.17 in 10.0 mi North 16.1 mph 23.0 mph N/A   Overcast
10:15 AM 51.8 °F 33.8 °F 50% 30.18 in 10.0 mi North 17.3 mph 25.3 mph N/A   Overcast
10:35 AM 51.8 °F 33.8 °F 50% 30.18 in 10.0 mi North 16.1 mph 26.5 mph N/A   Overcast
10:55 AM 53.6 °F 33.8 °F 47% 30.17 in 10.0 mi North 17.3 mph 24.2 mph N/A   Overcast
11:15 AM 53.6 °F 35.6 °F 51% 30.16 in 10.0 mi NNW 16.1 mph 21.9 mph N/A   Overcast
11:35 AM 55.4 °F 33.8 °F 44% 30.16 in 10.0 mi North 18.4 mph 25.3 mph N/A   Mostly Cloudy
11:55 AM 55.4 °F 33.8 °F 44% 30.15 in 10.0 mi North 17.3 mph 25.3 mph N/A   Mostly Cloudy
12:15 PM 55.4 °F 33.8 °F 44% 30.15 in 10.0 mi North 19.6 mph 23.0 mph N/A   Scattered Clouds
12:35 PM 55.4 °F 35.6 °F 47% 30.15 in 10.0 mi North 16.1 mph 23.0 mph N/A   Clear
12:55 PM 55.4 °F 35.6 °F 47% 30.15 in 10.0 mi NNW 16.1 mph 19.6 mph N/A   Clear
1:15 PM 59.0 °F 33.8 °F 39% 30.15 in 10.0 mi North 16.1 mph 23.0 mph N/A   Clear
1:35 PM 60.8 °F 35.6 °F 39% 30.14 in 10.0 mi NNW 11.5 mph 18.4 mph N/A   Clear
1:55 PM 60.8 °F 35.6 °F 39% 30.14 in 10.0 mi North 12.7 mph 21.9 mph N/A   Clear
2:15 PM 60.8 °F 35.6 °F 39% 30.13 in 10.0 mi NNW 8.1 mph 20.7 mph N/A   Clear
2:35 PM 62.6 °F 35.6 °F 37% 30.11 in 10.0 mi NNW 12.7 mph 18.4 mph N/A   Clear
2:55 PM 62.6 °F 35.6 °F 37% 30.10 in 10.0 mi North 12.7 mph - N/A   Clear
3:15 PM 64.4 °F 33.8 °F 32% 30.09 in 10.0 mi North 13.8 mph 18.4 mph N/A   Clear
3:35 PM 64.4 °F 35.6 °F 34% 30.09 in 10.0 mi North 12.7 mph 18.4 mph N/A   Clear
3:55 PM 64.4 °F 33.8 °F 32% 30.09 in 10.0 mi NNW 10.4 mph 20.7 mph N/A   Clear
4:15 PM 66.2 °F 35.6 °F 32% 30.08 in 10.0 mi NNW 13.8 mph 17.3 mph N/A   Clear
4:35 PM 66.2 °F 35.6 °F 32% 30.08 in 10.0 mi North 12.7 mph 16.1 mph N/A   Clear
4:55 PM 66.2 °F 35.6 °F 32% 30.08 in 10.0 mi North 8.1 mph - N/A   Clear
5:15 PM 68.0 °F 32.0 °F 26% 30.07 in 10.0 mi NNW 12.7 mph 17.3 mph N/A   Clear
5:35 PM 68.0 °F 33.8 °F 28% 30.07 in 10.0 mi NNW 11.5 mph - N/A   Clear
5:55 PM 68.0 °F 32.0 °F 26% 30.06 in 10.0 mi NW 13.8 mph - N/A   Clear
6:15 PM 66.2 °F 32.0 °F 28% 30.06 in 10.0 mi NNW 12.7 mph - N/A   Clear
6:35 PM 64.4 °F 32.0 °F 30% 30.07 in 10.0 mi NNW 9.2 mph - N/A   Clear
6:55 PM 62.6 °F 33.8 °F 34% 30.07 in 10.0 mi NNW 6.9 mph - N/A   Clear
7:15 PM 60.8 °F 35.6 °F 39% 30.08 in 10.0 mi NW 6.9 mph - N/A   Clear
7:35 PM 59.0 °F 35.6 °F 42% 30.09 in 10.0 mi NW 5.8 mph - N/A   Clear
7:55 PM 59.0 °F 35.6 °F 42% 30.09 in 10.0 mi West 3.5 mph - N/A   Clear
8:15 PM 55.4 °F 37.4 °F 51% 30.09 in 10.0 mi West 3.5 mph - N/A   Clear
8:35 PM 55.4 °F 39.2 °F 54% 30.09 in 10.0 mi West 3.5 mph - N/A   Clear
8:55 PM 53.6 °F 39.2 °F 58% 30.09 in 10.0 mi West 3.5 mph - N/A   Clear
9:15 PM 53.6 °F 37.4 °F 54% 30.09 in 10.0 mi Calm Calm - N/A   Clear
9:35 PM 53.6 °F 37.4 °F 54% 30.10 in 10.0 mi Calm Calm - N/A   Clear
9:55 PM 51.8 °F 41.0 °F 67% 30.10 in 10.0 mi Calm Calm - N/A   Clear
10:15 PM 50.0 °F 41.0 °F 71% 30.10 in 10.0 mi Calm Calm - N/A   Clear
10:35 PM 51.8 °F 41.0 °F 67% 30.11 in 10.0 mi Calm Calm - N/A   Clear
10:55 PM 50.0 °F 41.0 °F 71% 30.11 in 10.0 mi Calm Calm - N/A   Clear
11:15 PM 50.0 °F 41.0 °F 71% 30.10 in 10.0 mi Calm Calm - N/A   Clear
11:35 PM 50.0 °F 41.0 °F 71% 30.10 in 10.0 mi Calm Calm - N/A   Clear
11:55 PM 53.6 °F 35.6 °F 51% 30.10 in 10.0 mi West 5.8 mph - N/A   Clear